Powrót do katalogu

STARLINK-37431

AktywnyŁącznośćSSO
NORAD 68812·PAYLOAD·🇺🇸 United States

Wystrzelony Apr 23, 2026 z Vandenberg Space Force Base

Loading…

Następne Przeloty (najbliższe 24 godziny)

TLE

ŚwieżeSource: CelesTrak SupGP

Epoka: Sep 15, 2026, 03:34 UTC

1 68812C 26089L   26258.14909722 -.00041876  00000+0 -12994-2 0  2589
2 68812  97.2854 103.9631 0001735  95.3846  41.6405 15.33472829    11

Śledź STARLINK-37431 w czasie rzeczywistym z AllMySat

Download on the App Store